Temperature
25 23 23 24 24 25 24 24 24 24 24 23 22 22 22 21 21 21 21 21 21 21 22 21 21 21 21 21 20 20 20 20 19 19 19 19 19 19 19 19 19 19 19 19
24 24 25 25 25 25 24 24 24 24 24 23 22 22 22 21 21 21 21 21 21 21 22 22 21 21 21 21 20 20 20 20 20 19 19 19 19 19 19 19 19 19 19 19
25 25 26 26 25 25 24 24 24 24 24 23 23 22 21 21 21 21 22 22 22 22 22 22 22 21 21 21 21 20 20 20 20 19 19 19 19 19 19 19 19 19 19 19
25 25 26 26 26 25 24 25 25 24 23 21 23 21 21 20 20 21 21 22 22 22 22 22 22 21 21 21 21 21 20 20 20 19 19 19 19 19 19 19 19 19 19 19
25 26 26 26 26 26 25 25 24 23 22 21 21 21 21 20 21 20 21 22 22 22 22 22 22 22 22 21 21 21 20 20 20 20 19 19 19 19 19 19 19 19 19 19
25 26 26 26 26 26 25 23 22 20 20 21 22 21 21 20 21 21 21 22 22 22 22 22 22 22 21 21 21 21 20 20 20 20 19 19 19 19 19 19 19 19 19 19
25 25 26 26 25 25 24 22 21 22 20 21 21 21 20 21 21 21 22 22 23 23 22 22 22 22 22 21 21 21 20 20 20 20 20 19 19 19 19 19 19 19 19 19
24 24 25 26 25 24 23 22 21 22 21 20 20 20 21 22 22 22 23 23 23 23 23 22 22 22 22 21 21 21 21 20 20 20 20 19 19 19 19 19 19 19 18 18
23 24 25 26 25 24 23 21 21 20 20 20 20 20 21 21 21 21 22 22 22 23 23 23 22 22 22 22 21 21 21 21 20 20 20 19 19 19 19 19 19 19 18 18
23 24 25 25 25 24 23 20 19 19 20 21 21 21 20 21 21 20 20 21 22 22 23 22 22 22 22 22 21 21 21 21 20 20 20 20 19 19 19 19 19 18 18 18
22 23 24 24 24 24 22 21 19 17 19 20 20 21 21 20 21 20 20 21 22 22 22 22 22 22 22 22 21 21 21 20 20 20 20 19 19 19 19 19 19 18 18 18
20 20 21 22 23 23 23 21 19 21 20 18 19 20 22 20 20 20 21 22 22 22 22 22 22 22 22 21 21 21 20 20 20 20 20 19 19 19 19 19 18 18 18 18
20 20 21 22 22 22 23 21 20 18 17 16 19 21 21 19 20 21 21 21 22 22 22 22 22 22 21 21 21 21 20 20 20 20 20 19 19 19 19 18 18 18 18 17
20 18 20 22 21 21 22 22 20 19 19 18 19 21 21 20 19 20 21 22 22 22 22 22 22 21 21 21 21 20 20 20 20 20 19 19 19 19 18 18 18 18 17 17
19 19 20 20 21 21 22 22 21 20 19 20 20 19 20 19 19 20 21 21 21 21 22 22 22 21 21 21 21 20 20 20 20 19 19 19 19 18 18 18 18 18 17 17
17 19 20 21 21 21 22 22 21 21 21 20 20 20 20 20 20 20 20 20 21 21 21 22 22 22 21 21 21 20 20 20 19 19 19 18 18 18 18 18 18 17 17 17
16 18 19 19 20 21 21 21 21 21 21 20 21 21 19 19 19 20 21 21 21 22 22 22 22 22 21 21 21 20 20 20 19 19 19 18 18 18 18 17 17 17 17 17
16 16 15 17 20 21 20 20 21 21 20 20 20 19 19 19 20 21 21 21 21 22 22 22 22 22 21 21 21 20 20 19 19 19 19 18 18 18 17 17 17 17 16 16
14 15 15 15 18 19 20 20 20 20 20 19 19 18 18 19 19 20 21 21 22 22 22 22 22 21 21 21 20 20 19 19 19 18 18 18 18 17 17 17 16 16 16 16
13 14 15 15 18 19 19 20 21 20 20 19 18 18 18 18 17 18 21 21 21 21 21 21 21 21 20 20 20 19 19 19 18 18 18 17 17 17 17 16 16 16 15 15
16 14 15 15 17 17 18 19 20 20 19 20 19 19 18 18 19 20 20 20 21 21 21 21 21 20 20 19 19 19 19 19 18 18 17 17 17 17 16 16 16 15 15 15
15 15 14 14 16 17 18 18 18 18 20 20 20 20 19 20 19 20 20 20 20 20 20 20 20 19 19 19 19 18 18 18 18 17 17 17 16 16 16 15 15 15 14 14
14 14 14 14 16 16 17 18 19 19 19 20 20 20 20 19 19 19 19 19 19 19 19 19 19 19 18 18 18 18 18 18 17 17 17 16 16 16 15 15 15 14 14 14
14 12 13 14 15 16 17 18 19 20 20 20 20 20 20 19 19 18 18 19 19 19 19 19 19 18 18 18 18 18 17 17 17 17 16 16 15 15 15 14 14 14 14 14
14 13 13 14 15 16 17 18 19 19 20 19 19 19 19 19 18 18 18 18 18 18 18 17 17 17 17 17 17 17 16 16 16 16 16 15 15 14 14 14 14 14 13 13
13 13 14 14 15 15 17 18 18 19 19 19 19 19 19 18 18 18 17 17 18 17 17 17 17 17 16 16 16 16 16 16 15 15 15 15 14 14 14 14 13 13 13 13
Wind_Speed
3 4 2 6 7 5 4 3 4 5 2 4 4 4 5 8 8 8 8 8 9 10 7 7 7 8 8 7 8 8 7 6 5 3 3 2 2 2 2 3 5 5 5 4
4 2 7 4 4 3 4 2 3 3 1 3 1 2 2 7 9 10 10 10 10 8 6 7 7 8 9 9 9 9 9 8 7 5 3 3 2 2 2 2 3 5 5 4
5 6 3 3 2 2 2 5 5 3 2 3 2 3 2 2 4 5 6 7 7 9 9 8 8 9 9 9 10 10 9 8 7 6 3 2 1 1 1 1 2 3 4 4
4 4 2 2 3 5 4 5 5 4 3 1 1 2 5 3 4 6 7 8 9 9 9 8 8 9 10 10 9 8 8 7 6 6 5 5 4 4 4 2 2 2 2 2
5 3 2 3 5 6 5 2 4 3 4 2 2 1 7 2 4 8 9 9 9 9 9 9 9 9 9 8 8 7 6 6 6 6 7 5 4 3 2 1 2 1 1 2
6 3 4 5 1 4 5 6 6 6 5 1 2 3 6 4 7 7 7 8 8 8 8 7 7 6 6 6 6 6 7 6 6 6 6 6 6 5 3 2 2 2 1 2
4 4 2 3 2 3 6 6 4 5 4 4 2 2 7 7 6 8 8 8 7 7 7 7 8 8 7 8 7 6 6 5 5 6 6 6 6 5 5 4 3 2 1 1
3 6 4 3 5 5 4 8 7 5 5 5 2 4 7 5 4 3 4 4 4 6 7 8 9 9 9 9 8 7 7 6 5 5 4 4 4 4 3 3 3 2 2 2
7 6 4 2 3 8 6 4 6 7 3 0 4 6 7 2 1 1 2 3 5 6 6 7 7 8 8 8 8 9 8 6 5 5 5 3 3 4 4 3 2 2 2 2
8 4 4 2 4 4 5 9 6 6 5 3 5 5 5 5 4 3 3 4 5 5 6 6 6 7 7 8 7 7 7 7 5 5 5 4 4 4 3 3 2 2 1 1
5 5 4 2 3 5 4 5 6 5 5 6 4 7 6 8 8 7 6 5 4 5 5 5 4 4 5 5 6 6 6 6 5 5 4 4 3 3 3 2 2 2 1 1
4 5 2 5 4 2 5 7 7 5 4 5 5 7 5 6 7 6 5 4 4 4 4 4 5 5 5 5 6 6 6 6 6 6 5 4 3 3 3 2 2 2 2 1
5 6 2 5 5 3 2 3 4 6 5 6 5 7 3 1 2 4 5 5 4 4 4 4 4 5 5 5 6 6 6 6 6 5 5 4 3 3 3 3 2 2 2 1
5 5 7 9 8 4 2 2 4 6 5 6 8 8 6 4 4 5 4 5 5 5 5 5 5 5 5 5 5 6 5 5 5 5 5 4 4 4 3 2 2 2 2 2
5 4 4 5 4 4 4 4 5 6 8 9 8 8 9 8 8 7 5 5 5 5 5 6 6 6 5 5 5 5 5 4 5 5 5 5 4 3 3 3 2 2 2 2
3 4 2 1 2 3 2 4 6 6 5 6 4 7 7 5 3 4 5 6 7 7 7 6 6 6 6 7 6 6 5 5 6 6 5 4 4 4 4 3 3 2 2 1
2 5 3 3 2 2 4 6 7 5 4 6 7 8 3 3 7 8 8 7 8 7 7 7 7 7 7 7 7 7 6 5 6 5 5 4 5 5 4 4 2 2 2 2
6 4 3 2 2 5 8 2 4 5 3 3 4 4 5 6 5 4 5 7 6 6 5 6 6 6 6 5 6 6 6 6 6 5 5 4 5 5 4 4 4 3 3 2
5 7 4 4 4 5 6 3 4 5 4 2 4 3 2 1 2 2 4 5 6 6 6 6 6 6 5 6 6 6 6 6 5 5 5 5 5 5 4 5 4 3 3 2
5 5 5 4 4 7 8 4 2 4 4 3 3 3 2 3 1 6 4 3 3 3 3 3 3 4 4 5 6 7 6 6 6 6 5 5 5 5 5 5 4 3 3 3
3 4 4 4 4 7 6 3 4 5 7 4 4 5 5 5 6 4 2 2 3 3 2 3 4 4 4 5 7 6 6 6 5 4 4 4 4 4 4 4 3 3 2 2
5 4 3 4 4 7 3 3 5 6 3 3 4 4 4 3 1 1 1 2 2 2 2 3 4 3 3 5 7 6 5 5 4 4 4 4 3 3 3 4 3 3 3 3
5 6 6 7 6 5 4 5 4 2 2 3 3 4 3 2 0 1 0 1 1 2 2 2 3 3 2 4 6 6 5 4 5 4 3 3 3 2 3 4 4 3 3 3
2 2 3 2 5 6 5 4 2 1 2 2 2 3 4 2 1 0 0 0 1 2 1 1 3 2 2 2 4 5 4 5 5 5 4 3 3 2 2 3 3 4 4 3
4 3 2 3 6 5 5 4 2 0 1 2 2 1 4 4 2 1 0 1 2 2 2 2 2 2 1 1 1 2 2 4 4 3 3 2 2 2 2 2 2 3 4 5
5 6 6 6 7 5 6 5 2 1 1 2 2 2 3 3 2 1 1 1 2 2 2 2 2 2 1 1 1 1 3 5 5 3 3 3 3 3 3 2 1 1 2 3
Wind_Direction
52 79 203 216 192 186 178 186 246 260 218 162 200 221 197 185 188 201 206 210 217 222 216 193 191 187 182 182 182 187 188 186 168 162 170 179 215 223 234 234 236 242 242 235
43 269 236 206 170 153 163 191 262 306 100 154 193 273 231 194 203 205 207 211 217 217 205 194 190 189 187 188 189 189 194 189 185 180 171 174 187 212 220 234 241 243 239 229
192 238 216 170 167 148 203 191 209 213 38 50 69 334 292 234 211 208 210 210 208 207 205 201 196 195 191 195 198 199 197 194 192 179 149 133 103 16 278 249 244 242 236 231
233 249 186 194 207 169 239 220 179 153 106 333 86 273 289 259 244 223 218 213 207 204 200 196 194 194 198 205 200 195 192 193 191 176 173 177 192 219 229 230 243 256 243 237
248 214 196 234 227 174 208 119 116 110 120 60 28 146 288 301 256 244 226 217 212 202 197 195 194 194 193 192 189 187 182 189 187 181 182 184 207 220 223 216 239 264 285 258
244 237 203 213 213 147 132 76 62 52 71 22 255 173 279 245 229 237 223 213 209 199 196 197 192 184 183 175 172 173 177 192 190 184 184 187 197 197 192 216 224 251 268 279
310 302 251 161 89 46 93 89 38 7 10 259 267 190 253 257 234 219 220 214 202 193 189 191 185 185 183 174 172 170 175 192 192 181 184 188 191 188 192 202 207 217 246 266
206 280 253 187 170 172 162 140 156 193 220 271 324 240 260 274 257 234 230 215 191 189 193 195 195 190 186 179 173 170 177 183 177 173 180 181 181 186 197 201 197 202 221 241
185 245 279 229 169 139 139 165 160 136 148 235 282 284 303 305 313 273 224 201 200 201 195 194 191 189 185 180 179 177 178 174 173 176 168 164 172 180 190 190 188 208 233 240
166 219 286 281 83 53 135 142 104 121 152 232 283 273 252 263 252 247 229 215 208 199 192 187 185 188 185 182 180 173 172 176 173 173 174 179 185 188 185 175 188 208 234 246
139 168 294 24 164 187 114 105 109 120 152 163 230 265 226 221 220 216 219 214 200 194 189 179 171 169 172 172 173 171 170 169 173 179 182 182 189 191 182 182 195 199 209 219
145 132 226 263 270 196 157 159 148 156 203 176 182 259 274 230 220 206 209 208 195 181 179 168 162 158 168 178 180 178 179 182 191 189 182 184 188 178 176 190 205 201 197 201
136 116 89 338 337 0 99 143 150 134 126 156 178 256 307 331 248 213 197 198 187 167 158 149 154 171 182 183 177 181 186 193 194 183 177 174 178 187 195 205 202 187 181 172
119 120 165 197 218 209 224 194 162 141 158 195 218 241 281 271 245 239 213 194 181 175 169 167 176 188 189 185 184 184 188 187 178 169 172 178 189 199 200 196 191 187 179 170
106 150 194 217 215 182 200 211 186 185 189 190 219 223 246 236 222 223 211 189 182 192 196 193 190 190 189 184 184 183 181 176 172 168 177 194 195 185 183 186 190 187 181 184
78 144 158 242 216 186 215 232 206 208 195 202 216 248 252 235 197 208 213 201 200 207 208 205 196 188 192 189 183 177 176 177 171 175 184 185 175 175 191 197 188 181 182 157
102 128 132 227 293 74 254 228 202 207 205 181 207 236 245 208 209 210 209 208 213 215 212 203 200 200 201 196 185 182 181 175 172 177 180 180 176 184 196 196 179 186 188 168
142 122 133 151 103 214 240 249 184 185 211 207 223 245 226 227 231 230 210 205 215 219 215 212 207 205 206 197 182 171 164 166 171 176 183 185 179 186 188 182 187 193 188 182
159 141 128 135 180 256 288 246 170 177 231 220 218 260 291 20 39 294 224 206 215 214 213 211 207 206 196 188 176 160 164 168 173 184 190 192 187 188 187 190 198 195 186 190
72 103 124 139 166 220 241 259 204 131 248 254 203 207 186 108 178 257 243 212 219 215 203 196 179 171 178 182 162 159 170 175 190 197 195 189 186 186 191 194 191 194 186 193
58 60 128 165 204 249 258 284 110 157 238 243 199 195 176 191 221 243 238 236 210 191 183 157 150 172 186 172 156 165 175 194 198 183 176 177 180 182 184 184 176 171 176 169
164 151 173 149 185 248 279 120 171 220 232 191 192 188 186 212 264 256 208 197 173 154 155 150 154 180 177 162 157 170 191 195 166 160 167 174 172 171 166 159 161 161 164 175
184 184 183 189 214 252 262 229 249 206 197 202 196 206 178 159 329 336 307 185 140 141 167 167 158 161 163 163 165 180 198 172 160 159 166 173 171 174 171 169 175 176 179 189
245 152 141 241 268 276 277 274 296 214 195 219 195 173 145 139 161 89 330 74 94 99 92 96 122 141 173 174 176 191 187 167 164 167 169 170 178 190 183 175 179 179 190 196
217 164 151 242 271 297 296 286 278 266 77 89 79 135 143 137 141 157 250 169 129 101 93 103 128 154 198 178 184 194 171 158 165 165 163 177 182 177 174 167 195 202 209 207
210 187 184 225 231 217 250 259 244 179 164 153 120 92 100 127 146 148 226 206 145 120 116 124 134 150 183 177 196 189 165 161 162 170 181 194 194 189 183 176 189 325 232 225
Height
1499 1505 1511 1508 1506 1508 1511 1516 1519 1513 1507 1511 1514 1514 1513 1513 1515 1517 1518 1519 1520 1521 1524 1526 1528 1530 1532 1534 1536 1539 1540 1542 1544 1545 1547 1548 1549 1551 1551 1552 1553 1553 1553 1554
1505 1508 1501 1499 1502 1505 1510 1516 1517 1512 1507 1511 1515 1515 1512 1511 1512 1513 1515 1517 1518 1520 1522 1524 1526 1528 1530 1533 1535 1537 1538 1540 1542 1543 1545 1547 1548 1549 1550 1551 1551 1551 1552 1552
1505 1501 1496 1498 1502 1507 1510 1513 1513 1514 1511 1511 1515 1519 1515 1511 1511 1512 1513 1514 1516 1517 1519 1521 1523 1526 1528 1530 1532 1534 1536 1538 1540 1542 1544 1545 1546 1547 1548 1549 1549 1549 1550 1550
1500 1496 1496 1498 1501 1503 1512 1503 1505 1510 1519 1527 1521 1536 1520 1513 1511 1510 1510 1510 1511 1513 1515 1517 1520 1522 1525 1527 1530 1533 1534 1536 1538 1540 1542 1543 1544 1544 1545 1546 1547 1548 1548 1548
1499 1494 1496 1499 1497 1498 1503 1500 1505 1511 1520 1528 1527 1534 1527 1515 1513 1508 1506 1507 1508 1510 1512 1514 1516 1519 1522 1525 1528 1530 1532 1534 1536 1537 1539 1540 1541 1542 1543 1544 1545 1545 1545 1546
1494 1491 1491 1492 1491 1493 1497 1505 1512 1520 1527 1539 1530 1535 1532 1518 1509 1504 1502 1503 1505 1507 1510 1512 1515 1517 1520 1523 1525 1527 1529 1532 1533 1535 1537 1538 1539 1540 1541 1542 1542 1543 1543 1543
1499 1493 1489 1488 1495 1496 1501 1518 1538 1541 1548 1544 1529 1532 1527 1505 1501 1499 1499 1500 1502 1505 1507 1510 1512 1515 1517 1519 1522 1524 1527 1529 1531 1533 1534 1536 1537 1538 1539 1539 1540 1540 1540 1541
1510 1509 1491 1488 1492 1499 1504 1513 1537 1548 1551 1543 1532 1533 1516 1501 1498 1497 1498 1499 1500 1502 1505 1507 1509 1512 1514 1517 1519 1521 1524 1526 1528 1530 1532 1534 1535 1536 1537 1537 1538 1538 1538 1538
1509 1506 1488 1486 1486 1492 1504 1513 1513 1532 1538 1544 1537 1526 1510 1499 1498 1497 1497 1498 1499 1500 1502 1504 1507 1510 1512 1515 1517 1519 1522 1524 1526 1528 1530 1531 1533 1534 1534 1535 1535 1536 1536 1536
1495 1503 1491 1487 1487 1491 1495 1506 1521 1532 1545 1548 1537 1530 1521 1505 1500 1497 1497 1496 1497 1499 1501 1503 1505 1508 1510 1512 1515 1517 1520 1522 1524 1526 1527 1529 1531 1532 1532 1533 1533 1533 1534 1534
1490 1502 1499 1493 1495 1498 1502 1508 1517 1529 1532 1544 1547 1531 1501 1499 1495 1495 1494 1494 1495 1497 1499 1501 1504 1507 1509 1511 1513 1515 1517 1520 1521 1523 1525 1527 1529 1530 1530 1530 1530 1531 1531 1532
1490 1501 1509 1499 1490 1488 1492 1500 1511 1523 1531 1535 1537 1526 1492 1492 1490 1491 1492 1493 1494 1496 1498 1500 1502 1505 1507 1509 1511 1513 1515 1517 1519 1521 1523 1525 1526 1527 1528 1528 1528 1529 1529 1529
1489 1501 1515 1511 1505 1496 1495 1497 1503 1512 1524 1535 1535 1519 1491 1490 1490 1490 1491 1492 1493 1495 1497 1499 1501 1503 1505 1507 1508 1511 1513 1515 1517 1518 1520 1522 1524 1525 1525 1526 1526 1527 1527 1527
1482 1498 1507 1513 1508 1500 1499 1498 1500 1508 1521 1527 1521 1509 1495 1491 1490 1489 1489 1490 1492 1493 1495 1497 1499 1501 1503 1505 1507 1509 1511 1513 1514 1516 1518 1519 1520 1522 1523 1524 1524 1525 1525 1525
1482 1496 1496 1495 1492 1493 1494 1495 1497 1500 1504 1510 1505 1503 1493 1488 1487 1487 1487 1489 1490 1492 1494 1495 1497 1498 1500 1503 1504 1506 1508 1510 1512 1513 1515 1516 1518 1519 1521 1521 1522 1522 1523 1523
1485 1493 1494 1495 1490 1491 1493 1491 1492 1493 1495 1497 1496 1495 1484 1483 1485 1485 1486 1487 1488 1489 1491 1493 1494 1496 1498 1500 1501 1503 1505 1507 1509 1511 1512 1514 1515 1516 1517 1518 1519 1519 1519 1520
1489 1494 1501 1504 1495 1493 1500 1490 1489 1489 1488 1490 1493 1488 1482 1483 1482 1482 1483 1485 1486 1487 1488 1490 1491 1493 1495 1497 1499 1500 1502 1504 1506 1508 1509 1511 1512 1513 1514 1515 1516 1516 1516 1517
1489 1496 1504 1507 1502 1510 1494 1481 1481 1484 1484 1483 1483 1481 1480 1479 1479 1481 1481 1483 1484 1485 1487 1488 1489 1491 1493 1495 1496 1498 1500 1502 1503 1505 1506 1508 1508 1509 1511 1511 1512 1512 1513 1513
1482 1491 1504 1511 1510 1503 1488 1480 1481 1484 1485 1481 1481 1480 1480 1479 1479 1479 1480 1481 1482 1483 1484 1486 1487 1488 1490 1492 1493 1495 1497 1499 1501 1502 1503 1504 1506 1507 1507 1508 1509 1509 1510 1510
1484 1487 1500 1508 1508 1508 1489 1475 1474 1479 1486 1478 1478 1478 1479 1479 1484 1479 1477 1479 1480 1481 1482 1483 1485 1486 1487 1489 1491 1492 1494 1496 1498 1499 1500 1502 1503 1503 1504 1505 1505 1506 1507 1507
1491 1495 1500 1504 1503 1495 1479 1474 1474 1489 1486 1475 1475 1475 1477 1478 1478 1476 1475 1476 1478 1479 1480 1481 1482 1483 1484 1486 1488 1490 1491 1493 1495 1497 1498 1499 1499 1500 1501 1502 1502 1503 1504 1504
1492 1497 1501 1503 1503 1496 1475 1474 1478 1477 1471 1472 1472 1473 1474 1475 1474 1474 1474 1474 1475 1476 1478 1479 1480 1481 1482 1484 1485 1487 1489 1491 1493 1494 1495 1496 1496 1497 1498 1499 1500 1500 1501 1501
1486 1486 1488 1490 1488 1477 1474 1473 1471 1471 1470 1470 1471 1471 1473 1473 1473 1473 1473 1474 1474 1476 1477 1478 1478 1479 1480 1481 1483 1485 1486 1488 1489 1490 1491 1493 1494 1495 1495 1496 1497 1497 1498 1498
1481 1480 1483 1483 1478 1474 1472 1471 1470 1470 1469 1470 1470 1470 1471 1472 1473 1473 1473 1474 1474 1475 1476 1476 1477 1478 1479 1480 1481 1483 1484 1485 1486 1487 1488 1489 1491 1491 1492 1493 1494 1494 1495 1495
1478 1478 1480 1480 1475 1472 1470 1469 1469 1469 1469 1469 1470 1470 1471 1472 1472 1473 1473 1473 1474 1474 1475 1475 1476 1477 1478 1479 1480 1481 1483 1483 1484 1485 1486 1488 1488 1489 1489 1490 1491 1491 1492 1492
1473 1474 1476 1475 1471 1471 1468 1468 1468 1468 1468 1469 1469 1470 1470 1472 1473 1473 1473 1473 1473 1473 1474 1475 1476 1476 1477 1478 1478 1479 1481 1481 1482 1482 1483 1484 1485 1485 1486 1487 1487 1488 1489 1488